| time (UTC) | temp C | wind direction | speed KPH | gust KPH | rain 1hr cm | rain 24hr cm | rain mn cm | humidity % | barometer mb |
| 20260502194351 | 13 | 313 | 1.6 | 3.2 | 0.00 | 0.00 | 0.00 | 72 | 1011.4 |
| 20260502193851 | 13 | 313 | 0.0 | 3.2 | 0.00 | 0.00 | 0.00 | 71 | 1011.4 |
| 20260502193351 | 13 | 313 | 1.6 | 3.2 | 0.00 | 0.00 | 0.00 | 71 | 1011.4 |
| 20260502192851 | 13 | 313 | 0.0 | 3.2 | 0.00 | 0.00 | 0.00 | 71 | 1011.4 |
| 20260502192352 | 13 | 313 | 0.0 | 3.2 | 0.00 | 0.00 | 0.00 | 72 | 1011.3 |
| 20260502191851 | 13 | 313 | 1.6 | 3.2 | 0.00 | 0.00 | 0.00 | 72 | 1011.3 |
| 20260502191351 | 13 | 343 | 1.6 | 4.8 | 0.00 | 0.00 | 0.00 | 72 | 1011.3 |
| 20260502190852 | 13 | 321 | 1.6 | 4.8 | 0.00 | 0.00 | 0.00 | 73 | 1011.3 |
| 20260502190351 | 13 | 351 | 3.2 | 4.8 | 0.00 | 0.00 | 0.00 | 73 | 1011.3 |
| 20260502185851 | 13 | 331 | 1.6 | 4.8 | 0.00 | 0.00 | 0.00 | 73 | 1011.4 |
| 20260502185351 | 13 | 316 | 1.6 | 4.8 | 0.00 | 0.00 | 0.00 | 73 | 1011.4 |
| 20260502184851 | 13 | 333 | 1.6 | 3.2 | 0.00 | 0.00 | 0.00 | 72 | 1011.4 |
| 20260502184351 | 13 | 333 | 1.6 | 3.2 | 0.00 | 0.00 | 0.00 | 71 | 1011.4 |
| 20260502183851 | 14 | 333 | 0.0 | 1.6 | 0.00 | 0.00 | 0.00 | 72 | 1011.5 |
| 20260502183351 | 14 | 326 | 1.6 | 4.8 | 0.00 | 0.00 | 0.00 | 71 | 1011.5 |
| 20260502182851 | 14 | 358 | 1.6 | 4.8 | 0.00 | 0.00 | 0.00 | 70 | 1011.6 |
| 20260502182350 | 14 | 344 | 0.0 | 4.8 | 0.00 | 0.00 | 0.00 | 70 | 1011.6 |
| 20260502181851 | 14 | 313 | 0.0 | 0.0 | 0.00 | 0.00 | 0.00 | 71 | 1011.7 |
| 20260502181350 | 14 | 313 | 0.0 | 1.6 | 0.00 | 0.00 | 0.00 | 70 | 1011.7 |
| 20260502180851 | 14 | 313 | 0.0 | 3.2 | 0.00 | 0.00 | 0.00 | 71 | 1011.7 |
| 20260502180351 | 14 | 313 | 0.0 | 3.2 | 0.00 | 0.00 | 0.00 | 71 | 1011.8 |
| 20260502170351 | 15 | 304 | 3.2 | 4.8 | 0.00 | 0.00 | 0.00 | 67 | 1011.9 |
| 20260502163851 | 16 | 291 | 1.6 | 4.8 | 0.00 | 0.00 | 0.00 | 66 | 1012.2 |
| 20260502163351 | 16 | 316 | 1.6 | 3.2 | 0.00 | 0.00 | 0.00 | 65 | 1012.3 |
| 20260502162851 | 16 | 290 | 1.6 | 3.2 | 0.00 | 0.00 | 0.00 | 64 | 1012.4 |
| 20260502162351 | 16 | 314 | 1.6 | 4.8 | 0.00 | 0.00 | 0.00 | 64 | 1012.4 |
| 20260502161851 | 16 | 285 | 1.6 | 4.8 | 0.00 | 0.00 | 0.00 | 64 | 1012.3 |
| 20260502161350 | 16 | 311 | 3.2 | 4.8 | 0.00 | 0.00 | 0.00 | 62 | 1012.4 |
| 20260502160351 | 16 | 292 | 1.6 | 8.0 | 0.00 | 0.00 | 0.00 | 64 | 1012.6 |
| 20260502151851 | 16 | 319 | 1.6 | 4.8 | 0.00 | 0.00 | 0.00 | 63 | 1012.9 |
| 20260502151351 | 16 | 286 | 3.2 | 4.8 | 0.00 | 0.00 | 0.00 | 63 | 1013.1 |
| 20260502150851 | 16 | 351 | 1.6 | 4.8 | 0.00 | 0.00 | 0.00 | 63 | 1013.1 |
| 20260502150350 | 16 | 323 | 3.2 | 4.8 | 0.00 | 0.00 | 0.00 | 63 | 1013.3 |
| 20260502130350 | 15 | 283 | 4.8 | 14.5 | 0.00 | 0.00 | 0.00 | 67 | 1014.2 |
| 20260502123351 | 14 | 302 | 3.2 | 8.0 | 0.00 | 0.00 | 0.00 | 73 | 1014.6 |
| 20260502122851 | 13 | 263 | 4.8 | 9.7 | 0.00 | 0.00 | 0.00 | 74 | 1014.6 |
| 20260502122351 | 13 | 248 | 4.8 | 9.7 | 0.00 | 0.00 | 0.00 | 74 | 1014.9 |
| 20260502121851 | 13 | 309 | 3.2 | 9.7 | 0.00 | 0.00 | 0.00 | 77 | 1015.0 |
| 20260502121350 | 12 | 290 | 1.6 | 4.8 | 0.00 | 0.00 | 0.00 | 78 | 1015.0 |
| 20260502120850 | 12 | 289 | 3.2 | 11.3 | 0.00 | 0.00 | 0.00 | 77 | 1015.3 |
| 20260502115850 | 12 | 260 | 4.8 | 12.9 | 0.00 | 0.00 | 0.00 | 76 | 1015.3 |
| 20260502115350 | 12 | 293 | 3.2 | 11.3 | 0.00 | 0.00 | 0.00 | 76 | 1015.4 |
| 20260502114851 | 12 | 259 | 4.8 | 11.3 | 0.00 | 0.00 | 0.00 | 77 | 1015.4 |
| 20260502113851 | 12 | 238 | 3.2 | 11.3 | 0.00 | 0.00 | 0.00 | 74 | 1015.3 |
| 20260502113350 | 12 | 222 | 8.0 | 12.9 | 0.00 | 0.00 | 0.00 | 75 | 1015.2 |
| 20260502112850 | 12 | 218 | 8.0 | 12.9 | 0.00 | 0.00 | 0.00 | 77 | 1015.2 |
| 20260502112350 | 12 | 240 | 4.8 | 9.7 | 0.00 | 0.00 | 0.00 | 78 | 1015.1 |
| 20260502111851 | 12 | 265 | 4.8 | 9.7 | 0.00 | 0.00 | 0.00 | 79 | 1015.1 |
| 20260502111351 | 12 | 245 | 4.8 | 9.7 | 0.00 | 0.00 | 0.00 | 79 | 1015.1 |
| 20260502110351 | 12 | 260 | 4.8 | 12.9 | 0.00 | 0.00 | 0.00 | 81 | 1015.1 |
| 20260502105851 | 12 | 251 | 4.8 | 9.7 | 0.00 | 0.00 | 0.00 | 80 | 1015.0 |
| 20260502105350 | 12 | 276 | 4.8 | 9.7 | 0.00 | 0.00 | 0.00 | 81 | 1015.2 |
| 20260502104850 | 12 | 254 | 4.8 | 11.3 | 0.00 | 0.00 | 0.00 | 82 | 1015.2 |
| 20260502104350 | 12 | 294 | 1.6 | 4.8 | 0.00 | 0.00 | 0.00 | 83 | 1015.3 |
| 20260502103851 | 12 | 248 | 3.2 | 8.0 | 0.00 | 0.00 | 0.00 | 83 | 1015.3 |
| 20260502103351 | 12 | 268 | 3.2 | 8.0 | 0.00 | 0.00 | 0.00 | 83 | 1015.3 |
| 20260502102851 | 11 | 250 | 4.8 | 11.3 | 0.00 | 0.00 | 0.00 | 84 | 1015.4 |
| 20260502102351 | 11 | 248 | 3.2 | 8.0 | 0.00 | 0.00 | 0.00 | 84 | 1015.5 |
| 20260502101850 | 11 | 260 | 4.8 | 12.9 | 0.00 | 0.00 | 0.00 | 83 | 1015.6 |
| 20260502101350 | 12 | 256 | 3.2 | 9.7 | 0.00 | 0.00 | 0.00 | 83 | 1015.4 |
| 20260502100851 | 11 | 304 | 3.2 | 4.8 | 0.00 | 0.00 | 0.00 | 83 | 1015.4 |
| 20260502091351 | 11 | 274 | 3.2 | 8.0 | 0.00 | 0.00 | 0.00 | 85 | 1015.7 |
| 20260502090850 | 11 | 295 | 3.2 | 4.8 | 0.00 | 0.00 | 0.00 | 85 | 1015.8 |
| 20260502090350 | 11 | 288 | 3.2 | 8.0 | 0.00 | 0.00 | 0.00 | 86 | 1015.8 |
| 20260502071350 | 10 | 273 | 1.6 | 4.8 | 0.00 | 0.00 | 0.00 | 88 | 1015.7 |
| 20260502070851 | 10 | 256 | 3.2 | 4.8 | 0.00 | 0.00 | 0.00 | 88 | 1015.7 |
| 20260502070350 | 10 | 270 | 1.6 | 4.8 | 0.00 | 0.00 | 0.00 | 88 | 1015.7 |
| 20260502065850 | 10 | 244 | 1.6 | 4.8 | 0.00 | 0.00 | 0.00 | 88 | 1015.7 |
| 20260502065350 | 10 | 261 | 1.6 | 3.2 | 0.00 | 0.00 | 0.00 | 88 | 1015.7 |
| 20260502063850 | 10 | 237 | 3.2 | 8.0 | 0.00 | 0.00 | 0.00 | 88 | 1015.7 |
| 20260502063350 | 10 | 254 | 3.2 | 4.8 | 0.00 | 0.00 | 0.00 | 89 | 1015.6 |
| 20260502062350 | 10 | 251 | 1.6 | 9.7 | 0.00 | 0.00 | 0.00 | 89 | 1015.5 |
| 20260502061850 | 10 | 267 | 3.2 | 4.8 | 0.00 | 0.00 | 0.00 | 89 | 1015.5 |
| 20260502061351 | 10 | 251 | 4.8 | 8.0 | 0.00 | 0.00 | 0.00 | 89 | 1015.6 |
| 20260502060850 | 10 | 264 | 3.2 | 9.7 | 0.00 | 0.00 | 0.00 | 89 | 1015.6 |
| 20260502060350 | 10 | 255 | 4.8 | 11.3 | 0.00 | 0.00 | 0.00 | 89 | 1015.6 |
| 20260502055851 | 10 | 263 | 3.2 | 4.8 | 0.00 | 0.00 | 0.00 | 89 | 1015.6 |
| 20260502055350 | 10 | 274 | 3.2 | 11.3 | 0.00 | 0.00 | 0.00 | 88 | 1015.6 |
| 20260502054350 | 10 | 273 | 3.2 | 4.8 | 0.00 | 0.00 | 0.00 | 88 | 1015.6 |
| 20260502053851 | 10 | 264 | 3.2 | 4.8 | 0.00 | 0.00 | 0.00 | 88 | 1015.6 |
| 20260502052850 | 10 | 263 | 3.2 | 9.7 | 0.00 | 0.00 | 0.00 | 88 | 1015.6 |
| 20260502051850 | 10 | 247 | 4.8 | 12.9 | 0.00 | 0.00 | 0.00 | 88 | 1015.6 |
| 20260502051350 | 10 | 260 | 6.4 | 14.5 | 0.00 | 0.00 | 0.00 | 88 | 1015.6 |
| 20260502050850 | 10 | 255 | 6.4 | 19.3 | 0.00 | 0.00 | 0.00 | 88 | 1015.6 |
| 20260502045851 | 10 | 273 | 8.0 | 14.5 | 0.00 | 0.00 | 0.00 | 88 | 1015.6 |
| 20260502044850 | 10 | 227 | 3.2 | 8.0 | 0.00 | 0.00 | 0.00 | 88 | 1015.6 |
| 20260502044350 | 10 | 277 | 1.6 | 4.8 | 0.00 | 0.00 | 0.00 | 88 | 1015.6 |
| 20260502043850 | 10 | 229 | 1.6 | 4.8 | 0.00 | 0.00 | 0.00 | 88 | 1015.6 |
| 20260502043350 | 10 | 207 | 1.6 | 3.2 | 0.00 | 0.00 | 0.00 | 88 | 1015.5 |
| 20260502042850 | 10 | 256 | 1.6 | 3.2 | 0.00 | 0.00 | 0.00 | 88 | 1015.6 |
| 20260502042350 | 10 | 263 | 1.6 | 4.8 | 0.00 | 0.00 | 0.00 | 88 | 1015.6 |
| 20260502041851 | 10 | 226 | 1.6 | 4.8 | 0.00 | 0.00 | 0.00 | 88 | 1015.6 |
| 20260502041350 | 10 | 264 | 3.2 | 4.8 | 0.00 | 0.00 | 0.00 | 88 | 1015.7 |
| 20260502040850 | 10 | 246 | 3.2 | 8.0 | 0.00 | 0.00 | 0.00 | 88 | 1015.6 |
| 20260502040350 | 10 | 265 | 3.2 | 9.7 | 0.00 | 0.00 | 0.00 | 88 | 1015.7 |
| 20260502035850 | 10 | 289 | 1.6 | 4.8 | 0.00 | 0.00 | 0.00 | 88 | 1015.7 |
| 20260502035350 | 10 | 284 | 1.6 | 4.8 | 0.00 | 0.00 | 0.00 | 88 | 1015.7 |
| 20260502034850 | 10 | 294 | 0.0 | 4.8 | 0.00 | 0.00 | 0.00 | 88 | 1015.7 |
| 20260502034350 | 10 | 268 | 1.6 | 4.8 | 0.00 | 0.00 | 0.00 | 89 | 1015.7 |
| 20260502033850 | 10 | 260 | 3.2 | 4.8 | 0.00 | 0.00 | 0.00 | 89 | 1015.7 |
| 20260502033350 | 10 | 302 | 1.6 | 4.8 | 0.00 | 0.00 | 0.00 | 89 | 1015.7 |
| 20260502032850 | 10 | 286 | 3.2 | 4.8 | 0.00 | 0.00 | 0.00 | 89 | 1015.7 |
| 20260502032350 | 10 | 230 | 1.6 | 4.8 | 0.00 | 0.00 | 0.00 | 90 | 1015.6 |
| 20260502031350 | 9 | 252 | 3.2 | 4.8 | 0.00 | 0.00 | 0.00 | 90 | 1015.6 |
| 20260502030350 | 9 | 272 | 1.6 | 4.8 | 0.00 | 0.00 | 0.00 | 90 | 1015.6 |
| 20260502025850 | 9 | 272 | 1.6 | 4.8 | 0.00 | 0.00 | 0.00 | 90 | 1015.6 |
| 20260502025350 | 9 | 269 | 1.6 | 4.8 | 0.00 | 0.00 | 0.00 | 90 | 1015.5 |
| 20260502024850 | 9 | 298 | 3.2 | 4.8 | 0.00 | 0.00 | 0.00 | 90 | 1015.5 |
| 20260502024349 | 9 | 291 | 1.6 | 4.8 | 0.00 | 0.00 | 0.00 | 90 | 1015.6 |
| 20260502023350 | 9 | 268 | 1.6 | 4.8 | 0.00 | 0.00 | 0.00 | 90 | 1015.6 |
| 20260502022850 | 9 | 285 | 3.2 | 4.8 | 0.00 | 0.00 | 0.00 | 90 | 1015.6 |
| 20260502022351 | 9 | 275 | 1.6 | 4.8 | 0.00 | 0.00 | 0.00 | 90 | 1015.7 |
| 20260502021850 | 9 | 279 | 1.6 | 8.0 | 0.00 | 0.00 | 0.00 | 91 | 1015.8 |
| 20260502021350 | 9 | 289 | 3.2 | 4.8 | 0.00 | 0.00 | 0.00 | 91 | 1015.8 |
| 20260502020849 | 9 | 277 | 3.2 | 4.8 | 0.00 | 0.00 | 0.00 | 90 | 1015.8 |
| 20260502015850 | 9 | 266 | 3.2 | 4.8 | 0.00 | 0.00 | 0.00 | 90 | 1015.9 |
| 20260502015349 | 9 | 257 | 4.8 | 9.7 | 0.00 | 0.00 | 0.00 | 90 | 1016.0 |
| 20260502014850 | 9 | 279 | 4.8 | 11.3 | 0.00 | 0.00 | 0.00 | 89 | 1016.1 |
| 20260502014349 | 10 | 260 | 4.8 | 11.3 | 0.00 | 0.00 | 0.00 | 89 | 1016.1 |
| 20260502013349 | 10 | 264 | 3.2 | 8.0 | 0.00 | 0.00 | 0.00 | 89 | 1016.1 |
| 20260502012849 | 10 | 259 | 3.2 | 11.3 | 0.00 | 0.00 | 0.00 | 89 | 1016.2 |
| 20260502012349 | 10 | 270 | 3.2 | 4.8 | 0.00 | 0.00 | 0.00 | 89 | 1016.3 |
| 20260502011851 | 10 | 266 | 4.8 | 9.7 | 0.00 | 0.00 | 0.00 | 88 | 1016.3 |
| 20260502011349 | 10 | 267 | 4.8 | 12.9 | 0.00 | 0.00 | 0.00 | 88 | 1016.3 |
| 20260502010850 | 10 | 264 | 3.2 | 12.9 | 0.00 | 0.00 | 0.00 | 88 | 1016.4 |
| 20260502010349 | 10 | 281 | 6.4 | 12.9 | 0.00 | 0.00 | 0.00 | 89 | 1016.5 |
| 20260502005850 | 10 | 274 | 6.4 | 16.1 | 0.00 | 0.00 | 0.00 | 89 | 1016.6 |
| 20260502005350 | 10 | 249 | 3.2 | 11.3 | 0.00 | 0.00 | 0.00 | 89 | 1016.7 |
| 20260502004850 | 10 | 255 | 4.8 | 14.5 | 0.00 | 0.00 | 0.00 | 89 | 1016.7 |
| 20260502004350 | 10 | 252 | 4.8 | 11.3 | 0.00 | 0.00 | 0.00 | 89 | 1016.8 |
| 20260502003850 | 10 | 262 | 3.2 | 25.7 | 0.00 | 0.00 | 0.00 | 90 | 1016.8 |
| 20260502003350 | 10 | 269 | 3.2 | 8.0 | 0.00 | 0.00 | 0.00 | 90 | 1016.8 |
| 20260502002850 | 10 | 249 | 4.8 | 8.0 | 0.00 | 0.00 | 0.00 | 90 | 1016.8 |
| 20260502000350 | 11 | 243 | 3.2 | 4.8 | 0.00 | 0.00 | 0.00 | 90 | 1016.8 |
| 20260501235350 | 11 | 292 | 1.6 | 4.8 | 0.00 | 0.00 | 0.00 | 90 | 1016.9 |
| 20260501233349 | 11 | 254 | 3.2 | 8.0 | 0.00 | 0.00 | 0.00 | 89 | 1016.7 |
| 20260501232850 | 11 | 275 | 3.2 | 8.0 | 0.00 | 0.00 | 0.00 | 90 | 1016.7 |
| 20260501232349 | 11 | 275 | 3.2 | 9.7 | 0.00 | 0.00 | 0.00 | 90 | 1016.7 |
| 20260501231850 | 11 | 265 | 3.2 | 11.3 | 0.00 | 0.00 | 0.00 | 90 | 1016.8 |
| 20260501231349 | 11 | 263 | 4.8 | 9.7 | 0.00 | 0.00 | 0.00 | 90 | 1016.8 |
| 20260501230934 | 11 | 285 | 4.8 | 9.7 | 0.00 | 0.00 | 0.00 | 90 | 1016.7 |
| 20260501230350 | 11 | 250 | 3.2 | 11.3 | 0.00 | 0.00 | 0.00 | 90 | 1016.7 |
| 20260501225349 | 11 | 256 | 4.8 | 11.3 | 0.00 | 0.00 | 0.00 | 90 | 1016.7 |
| 20260501224849 | 11 | 265 | 4.8 | 11.3 | 0.00 | 0.00 | 0.00 | 90 | 1016.7 |
| 20260501224350 | 11 | 260 | 4.8 | 11.3 | 0.00 | 0.00 | 0.00 | 90 | 1016.7 |
| 20260501223850 | 11 | 261 | 4.8 | 12.9 | 0.00 | 0.00 | 0.00 | 90 | 1016.7 |
| 20260501223350 | 11 | 252 | 6.4 | 11.3 | 0.00 | 0.00 | 0.00 | 91 | 1016.7 |
| 20260501222850 | 11 | 251 | 6.4 | 14.5 | 0.00 | 0.00 | 0.00 | 91 | 1016.7 |
| 20260501222350 | 11 | 248 | 4.8 | 11.3 | 0.00 | 0.00 | 0.00 | 91 | 1016.7 |
| 20260501221350 | 11 | 272 | 6.4 | 12.9 | 0.00 | 0.00 | 0.00 | 91 | 1016.6 |
| 20260501220350 | 11 | 266 | 4.8 | 14.5 | 0.00 | 0.00 | 0.00 | 91 | 1016.6 |
| 20260501215850 | 11 | 269 | 6.4 | 14.5 | 0.00 | 0.00 | 0.00 | 91 | 1016.6 |
| 20260501215349 | 11 | 275 | 3.2 | 11.3 | 0.00 | 0.00 | 0.00 | 91 | 1016.6 |
| 20260501214850 | 11 | 279 | 4.8 | 8.0 | 0.00 | 0.00 | 0.00 | 90 | 1016.7 |
| 20260501213850 | 11 | 247 | 4.8 | 9.7 | 0.00 | 0.00 | 0.00 | 90 | 1016.8 |
| 20260501213349 | 11 | 257 | 3.2 | 9.7 | 0.00 | 0.00 | 0.00 | 90 | 1016.8 |
| 20260501212850 | 11 | 263 | 3.2 | 4.8 | 0.00 | 0.00 | 0.00 | 90 | 1016.8 |
| 20260501212349 | 11 | 256 | 4.8 | 11.3 | 0.00 | 0.00 | 0.00 | 89 | 1016.8 |
| 20260501211850 | 11 | 261 | 4.8 | 11.3 | 0.00 | 0.00 | 0.00 | 89 | 1016.8 |
| 20260501211349 | 11 | 261 | 4.8 | 9.7 | 0.00 | 0.00 | 0.00 | 89 | 1016.8 |
| 20260501210851 | 11 | 267 | 3.2 | 9.7 | 0.00 | 0.00 | 0.00 | 89 | 1016.8 |
| 20260501205349 | 11 | 277 | 4.8 | 14.5 | 0.00 | 0.00 | 0.00 | 89 | 1016.7 |
| 20260501204850 | 11 | 267 | 4.8 | 11.3 | 0.00 | 0.00 | 0.00 | 88 | 1016.8 |
| 20260501204350 | 11 | 275 | 4.8 | 11.3 | 0.00 | 0.00 | 0.00 | 87 | 1016.8 |
| 20260501203350 | 12 | 279 | 4.8 | 12.9 | 0.00 | 0.00 | 0.00 | 86 | 1016.9 |
| 20260501202849 | 12 | 272 | 4.8 | 9.7 | 0.00 | 0.00 | 0.00 | 86 | 1017.0 |
| 20260501202349 | 12 | 263 | 4.8 | 11.3 | 0.00 | 0.00 | 0.00 | 85 | 1017.0 |
| 20260501201849 | 12 | 258 | 3.2 | 11.3 | 0.00 | 0.00 | 0.00 | 85 | 1017.1 |
| 20260501201349 | 12 | 280 | 3.2 | 8.0 | 0.00 | 0.00 | 0.00 | 84 | 1017.0 |
| 20260501195849 | 12 | 256 | 3.2 | 8.0 | 0.00 | 0.00 | 0.00 | 82 | 1017.1 |
| 20260501195349 | 12 | 264 | 4.8 | 9.7 | 0.00 | 0.00 | 0.00 | 82 | 1017.1 |
| 20260501194850 | 12 | 263 | 4.8 | 9.7 | 0.00 | 0.00 | 0.00 | 82 | 1017.0 |